CW8593 Weather Reports


Display with metric or nautical units.
time (UTC)temp
F
wind
direction
speed
MPH
gust
MPH
rain 1hr
in
rain 24hr
in
rain mn
in
humidity
%
barometer
mb
20160529015706 61 304 0.0 2.0 0.00 0.02 0.00 79 1008.4
20160529014206 61 304 2.0 3.0 0.00 0.02 0.00 79 1008.6
20160529013706 62 304 1.0 3.0 0.00 0.02 0.00 78 1008.6
20160529012706 62 304 0.0 3.0 0.00 0.02 0.00 77 1008.5
20160529011206 62 299 0.0 0.0 0.00 0.02 0.00 76 1008.7
20160529010705 62 299 0.0 2.0 0.00 0.02 0.00 76 1008.7
20160529010205 62 299 1.0 3.0 0.00 0.02 0.00 76 1008.7
20160529004707 63 300 0.0 0.0 0.00 0.02 0.00 76 1009.0
20160529004206 63 300 0.0 2.0 0.00 0.02 0.00 75 1009.0
20160529003706 63 300 0.0 2.0 0.00 0.02 0.00 75 1009.0
20160529003205 63 300 0.0 2.0 0.00 0.02 0.00 75 1009.0
20160529002705 63 300 1.0 3.0 0.00 0.02 0.00 75 1009.0
20160529002206 63 299 3.0 7.0 0.00 0.02 0.00 74 1009.0
20160529001205 64 0 2.0 6.0 0.00 0.02 0.00 74 1009.2
20160529000706 64 330 3.0 5.0 0.00 0.02 0.00 72 1009.5
20160529000206 65 347 1.0 3.0 0.00 0.02 0.00 71 1009.6
20160528234205 65 344 1.0 7.0 0.00 0.02 0.02 72 1008.9
20160528233705 64 41 3.0 7.0 0.00 0.02 0.02 75 1009.2
20160528232706 64 96 0.0 5.0 0.00 0.02 0.02 77 1009.2
20160528232205 64 308 1.0 3.0 0.00 0.02 0.02 78 1009.2
20160528231705 63 302 0.0 2.0 0.00 0.02 0.02 78 1009.2
20160528231205 63 302 1.0 3.0 0.00 0.02 0.02 78 1009.2
20160528230706 64 302 2.0 3.0 0.00 0.02 0.02 79 1009.7
20160528230205 64 302 2.0 3.0 0.00 0.02 0.02 79 1009.7
20160528225705 64 302 0.0 1.0 0.00 0.02 0.02 78 1009.7
20160528225205 64 302 0.0 1.0 0.00 0.02 0.02 78 1009.7
20160528224705 64 302 0.0 1.0 0.01 0.02 0.02 78 1009.7
20160528224206 64 302 0.0 1.0 0.01 0.02 0.02 77 1009.7
20160528223706 64 302 0.0 5.0 0.02 0.02 0.02 77 1009.7
20160528222706 63 302 6.0 8.0 0.02 0.02 0.02 76 1009.4
20160528221205 64 37 0.0 3.0 0.02 0.02 0.02 78 1009.4
20160528220707 65 37 2.0 3.0 0.02 0.02 0.02 78 1009.4
20160528220206 65 38 1.0 3.0 0.02 0.02 0.02 79 1009.9
20160528215705 65 38 1.0 3.0 0.02 0.02 0.02 79 1009.9
20160528214207 66 172 0.0 2.0 0.02 0.02 0.02 80 1010.5
20160528212707 67 101 1.0 3.0 0.01 0.01 0.01 81 1010.8
20160528212205 67 101 1.0 5.0 0.01 0.01 0.01 81 1010.9
20160528211706 67 99 2.0 5.0 0.00 0.00 0.00 82 1010.6
20160528211205 66 8 1.0 5.0 0.00 0.00 0.00 82 1010.6
20160528210705 66 0 3.0 8.0 0.00 0.00 0.00 83 1010.6
20160528210205 66 344 2.0 9.0 0.00 0.00 0.00 84 1010.6
20160528205205 66 217 6.0 12.0 0.00 0.00 0.00 86 1010.5
20160528204706 66 219 0.0 1.0 0.00 0.00 0.00 87 1010.5
20160528204205 66 219 0.0 2.0 0.00 0.00 0.00 87 1010.4
20160528203705 66 219 1.0 5.0 0.00 0.00 0.00 87 1010.3
20160528203206 66 222 3.0 5.0 0.00 0.00 0.00 87 1009.3
20160528201705 66 169 0.0 2.0 0.00 0.00 0.00 87 1009.3
20160528201205 66 169 1.0 3.0 0.00 0.00 0.00 88 1009.5
20160528200705 66 169 1.0 3.0 0.00 0.00 0.00 88 1009.4
20160528194705 66 157 5.0 7.0 0.00 0.00 0.00 88 1009.3
20160528194205 66 166 1.0 6.0 0.00 0.00 0.00 88 1009.3
20160528193705 66 167 1.0 5.0 0.00 0.00 0.00 88 1009.1
20160528193205 66 167 1.0 3.0 0.00 0.00 0.00 88 1008.7
20160528192706 66 167 2.0 3.0 0.00 0.00 0.00 88 1008.7
20160528192205 66 167 2.0 6.0 0.00 0.00 0.00 87 1008.8
20160528191706 66 165 3.0 5.0 0.00 0.00 0.00 87 1008.8
20160528191205 66 160 2.0 5.0 0.00 0.00 0.00 87 1008.8
20160528190705 66 160 3.0 6.0 0.00 0.00 0.00 87 1008.8
20160528190205 66 142 0.0 3.0 0.00 0.00 0.00 86 1008.8
20160528185705 66 142 3.0 5.0 0.00 0.00 0.00 86 1008.9
20160528184705 66 128 3.0 5.0 0.00 0.00 0.00 85 1008.8
20160528183205 67 144 3.0 6.0 0.00 0.00 0.00 83 1009.0
20160528181705 69 115 6.0 9.0 0.00 0.00 0.00 79 1008.9
20160528181205 70 140 5.0 8.0 0.00 0.00 0.00 77 1008.8
20160528180205 71 115 4.0 7.0 0.00 0.00 0.00 75 1008.8
20160528175705 71 101 2.0 3.0 0.00 0.00 0.00 75 1008.8
20160528175204 71 101 0.0 1.0 0.00 0.00 0.00 76 1008.5
20160528174706 71 101 1.0 5.0 0.00 0.00 0.00 75 1008.3
20160528173704 71 73 1.0 5.0 0.00 0.00 0.00 75 1008.5
20160528172705 71 38 1.0 3.0 0.00 0.00 0.00 75 1008.5
20160528172205 71 29 0.0 3.0 0.00 0.00 0.00 75 1008.5
20160528171705 71 30 1.0 5.0 0.00 0.00 0.00 76 1008.5
20160528170705 70 159 1.0 3.0 0.00 0.00 0.00 78 1008.5
20160528170205 70 159 0.0 2.0 0.00 0.00 0.00 79 1008.9
20160528165205 69 128 1.0 3.0 0.00 0.00 0.00 81 1008.9
20160528164705 69 128 0.0 3.0 0.00 0.00 0.00 82 1009.0
20160528162705 67 126 1.0 3.0 0.00 0.00 0.00 83 1009.7
20160528160205 68 155 1.0 6.0 0.00 0.00 0.00 81 1010.2
20160528155204 68 162 4.0 9.0 0.00 0.00 0.00 80 1010.4
20160528153705 69 142 6.0 9.0 0.00 0.00 0.00 78 1010.1
20160528150205 71 144 4.0 10.0 0.00 0.00 0.00 73 1009.3
20160528145205 70 119 0.0 3.0 0.00 0.00 0.00 76 1009.3
20160528144705 70 119 2.0 5.0 0.00 0.00 0.00 76 1009.4
20160528144204 69 79 1.0 3.0 0.00 0.00 0.00 77 1009.4
20160528142205 68 167 2.0 6.0 0.00 0.00 0.00 80 1010.6
20160528141705 67 157 5.0 9.0 0.00 0.00 0.00 79 1011.0
20160528141205 68 153 7.0 12.0 0.00 0.00 0.00 79 1011.6
20160528140204 68 144 5.0 12.0 0.00 0.00 0.00 79 1011.1
20160528135705 68 164 9.0 15.0 0.00 0.00 0.00 77 1011.1
20160528134704 68 141 7.0 13.0 0.00 0.00 0.00 77 1011.1
20160528132205 70 131 7.0 13.0 0.00 0.00 0.00 74 1011.0
20160528130704 70 152 8.0 13.0 0.00 0.00 0.00 73 1010.9
20160528130205 71 135 6.0 10.0 0.00 0.00 0.00 73 1010.7
20160528124205 69 165 4.0 8.0 0.00 0.00 0.00 75 1011.3
20160528123205 69 132 5.0 9.0 0.00 0.00 0.00 75 1011.3
20160528122704 69 170 5.0 12.0 0.00 0.00 0.00 75 1011.3
20160528122205 69 134 5.0 10.0 0.00 0.00 0.00 76 1011.5
20160528121706 69 142 5.0 12.0 0.00 0.00 0.00 76 1011.5
20160528121205 69 147 5.0 9.0 0.00 0.00 0.00 76 1011.6
20160528120204 69 163 6.0 12.0 0.00 0.00 0.00 76 1011.5
20160528115204 69 124 5.0 10.0 0.00 0.00 0.00 76 1011.5
20160528114704 69 174 5.0 12.0 0.00 0.00 0.00 76 1011.5
20160528114204 69 151 5.0 9.0 0.00 0.00 0.00 75 1011.6
20160528113705 69 147 5.0 12.0 0.00 0.00 0.00 75 1011.6
20160528111205 69 106 0.0 3.0 0.00 0.00 0.00 77 1011.5
20160528105706 68 131 1.0 3.0 0.00 0.00 0.00 79 1011.6
20160528105204 67 131 0.0 6.0 0.00 0.00 0.00 79 1011.8
20160528103705 67 146 4.0 6.0 0.00 0.00 0.00 80 1011.8
20160528103205 67 134 3.0 6.0 0.00 0.00 0.00 80 1012.0
20160528102705 67 163 3.0 6.0 0.00 0.00 0.00 81 1012.0
20160528102205 67 161 2.0 6.0 0.00 0.00 0.00 81 1012.0
20160528101205 67 156 2.0 7.0 0.00 0.00 0.00 81 1012.0
20160528100705 67 156 3.0 6.0 0.00 0.00 0.00 81 1012.3
20160528100205 67 53 1.0 3.0 0.00 0.00 0.00 81 1012.3
20160528094705 66 52 0.0 3.0 0.00 0.00 0.00 82 1012.3
20160528094205 66 52 1.0 3.0 0.00 0.00 0.00 83 1012.2
20160528093705 66 51 2.0 3.0 0.00 0.00 0.00 83 1012.2
20160528093205 66 329 0.0 2.0 0.00 0.00 0.00 84 1012.2
20160528091704 65 329 0.0 3.0 0.00 0.00 0.00 85 1012.2
20160528090704 65 59 1.0 3.0 0.00 0.00 0.00 86 1012.2
20160528090205 65 59 1.0 3.0 0.00 0.00 0.00 86 1012.2
20160528084705 64 76 0.0 3.0 0.00 0.00 0.00 87 1012.4
20160528083704 64 76 0.0 1.0 0.00 0.00 0.00 87 1012.5
20160528083205 64 77 0.0 2.0 0.00 0.00 0.00 88 1012.5
20160528082705 63 77 0.0 3.0 0.00 0.00 0.00 87 1012.5
20160528082204 63 77 2.0 3.0 0.00 0.00 0.00 87 1012.5
20160528080705 63 77 0.0 3.0 0.00 0.00 0.00 87 1012.7
20160528075705 63 76 2.0 3.0 0.00 0.00 0.00 87 1012.7
20160528075205 63 76 2.0 3.0 0.00 0.00 0.00 87 1012.5
20160528074205 63 17 1.0 3.0 0.00 0.00 0.00 87 1012.7
20160528072704 63 3 0.0 1.0 0.00 0.00 0.00 87 1012.9
20160528071705 63 3 0.0 3.0 0.00 0.00 0.00 87 1012.8
20160528070704 63 3 0.0 1.0 0.00 0.00 0.00 87 1012.8
20160528065704 63 3 0.0 2.0 0.00 0.00 0.00 87 1012.6
20160528064705 63 3 0.0 1.0 0.00 0.00 0.00 87 1012.6
20160528064204 63 3 0.0 1.0 0.00 0.00 0.00 87 1012.7
20160528062204 63 3 0.0 1.0 0.00 0.00 0.00 86 1012.7
20160528061204 63 4 0.0 2.0 0.00 0.00 0.00 86 1012.8
20160528060205 64 355 0.0 1.0 0.00 0.00 0.00 86 1012.5
20160528055205 63 355 0.0 0.0 0.00 0.00 0.00 86 1012.5
20160528054204 63 355 0.0 0.0 0.00 0.00 0.00 86 1012.4
20160528053704 63 355 0.0 0.0 0.00 0.00 0.00 86 1012.3
20160528052704 63 355 0.0 0.0 0.00 0.00 0.00 86 1012.3
20160528052204 63 355 0.0 0.0 0.00 0.00 0.00 86 1012.2
20160528051205 63 355 1.0 3.0 0.00 0.00 0.00 86 1012.3
20160528045704 62 355 0.0 0.0 0.00 0.00 0.00 86 1012.2
20160528045205 62 355 0.0 1.0 0.00 0.00 0.00 87 1012.2
20160528044704 62 355 0.0 1.0 0.00 0.00 0.00 87 1012.3
20160528043704 62 355 0.0 0.0 0.00 0.00 0.00 87 1012.3
20160528043204 62 355 0.0 0.0 0.00 0.00 0.00 87 1012.3
20160528042706 61 355 0.0 0.0 0.00 0.00 0.00 87 1012.3
20160528042204 61 355 0.0 0.0 0.00 0.00 0.00 87 1012.3
20160528041704 61 355 0.0 0.0 0.00 0.00 0.00 87 1012.4
20160528041205 61 355 1.0 2.0 0.00 0.00 0.00 87 1012.3
20160528040705 61 355 1.0 2.0 0.00 0.00 0.00 87 1012.4
20160528035705 60 355 0.0 0.0 0.00 0.00 0.00 87 1012.3
20160528035205 60 355 0.0 3.0 0.00 0.00 0.00 87 1012.3
20160528034705 60 4 1.0 3.0 0.00 0.00 0.00 87 1012.3
20160528033705 59 3 0.0 2.0 0.00 0.00 0.00 87 1012.2
20160528032705 59 3 0.0 3.0 0.00 0.00 0.00 86 1012.2
20160528030705 60 3 0.0 2.0 0.00 0.00 0.00 86 1012.0
20160528030204 60 3 0.0 2.0 0.00 0.00 0.00 85 1012.0
20160528025705 60 3 0.0 0.0 0.00 0.00 0.00 85 1012.1
20160528024704 60 3 0.0 1.0 0.00 0.00 0.00 85 1011.9
20160528023705 60 3 0.0 1.0 0.00 0.00 0.00 84 1012.0
20160528022705 60 2 1.0 2.0 0.00 0.00 0.00 84 1011.9
20160528022204 60 3 0.0 2.0 0.00 0.00 0.00 84 1011.9
20160528021705 60 4 0.0 0.0 0.00 0.00 0.00 84 1012.0
20160528021205 61 3 0.0 0.0 0.00 0.00 0.00 84 1011.9